Location: Arroyo Grande
(40.2671°N, 4.2512°W)
Time: 06:51:54
(UTC+00:00)

SL-4 R/B - Pass Details

Date: 03 February 2023
Orbit: 423 x 637 km, 51.6° (Epoch: 25 March)

Event Time Altitude Azimuth Distance (km) Brightness Sun altitude
Rises 18:28:07 0° 302° (WNW) 2,413 6.0 -10.0°
Maximum altitude 18:32:55 13° 2° (N) 1,401 4.0 -10.9°
Drops below altitude 10° 18:34:48 10° 33° (NNE) 1,625 4.0 -11.3°
Enters shadow 18:34:57 10° 35° (NE) 1,658 4.0 -11.3°
